Satellite: NOAA-14 Catalog number: 23455 Epoch time: 14148.32616911 Element set: 764 Inclination: 098.7783 deg RA of node: 232.1147 deg Eccentricity: 0.0010563 Arg of perigee: 097.7567 deg Mean anomaly: 303.9804 deg Mean motion: 14.13974218 rev/day Decay rate: -6.3e-07 rev/day^2 Epoch rev: 114 Checksum: 300
Satellite: NOAA-15 Catalog number: 25338 Epoch time: 14149.78224681 Element set: 199 Inclination: 098.7514 deg RA of node: 143.6751 deg Eccentricity: 0.0010118 Arg of perigee: 195.8432 deg Mean anomaly: 164.2906 deg Mean motion: 14.25423319 rev/day Decay rate: 2.05e-06 rev/day^2 Epoch rev: 83422 Checksum: 305
Satellite: RESURS Catalog number: 25394 Epoch time: 14148.83499434 Element set: 666 Inclination: 098.4110 deg RA of node: 114.0228 deg Eccentricity: 0.0000851 Arg of perigee: 022.5915 deg Mean anomaly: 032.6797 deg Mean motion: 14.24394816 rev/day Decay rate: -2.5e-07 rev/day^2 Epoch rev: 82556 Checksum: 302
Satellite: FENGYUN1 Catalog number: 25730 Epoch time: 14149.83829251 Element set: 157 Inclination: 098.9114 deg RA of node: 111.0443 deg Eccentricity: 0.0025965 Arg of perigee: 158.8408 deg Mean anomaly: 261.1958 deg Mean motion: 14.11882344 rev/day Decay rate: 2.90e-06 rev/day^2 Epoch rev: 77493 Checksum: 313
Satellite: OKEAN-0 Catalog number: 25860 Epoch time: 14149.79297105 Element set: 262 Inclination: 098.0409 deg RA of node: 113.7687 deg Eccentricity: 0.0002080 Arg of perigee: 108.5130 deg Mean anomaly: 311.8541 deg Mean motion: 14.75261871 rev/day Decay rate: 3.18e-06 rev/day^2 Epoch rev: 79944 Checksum: 301
Satellite: NOAA-16 Catalog number: 26536 Epoch time: 14149.74205183 Element set: 688 Inclination: 098.9914 deg RA of node: 210.0209 deg Eccentricity: 0.0009791 Arg of perigee: 234.0777 deg Mean anomaly: 125.9972 deg Mean motion: 14.13044486 rev/day Decay rate: 1.55e-06 rev/day^2 Epoch rev: 70558 Checksum: 326
Satellite: NOAA-17 Catalog number: 27453 Epoch time: 14149.72315185 Element set: 593 Inclination: 098.3127 deg RA of node: 150.4062 deg Eccentricity: 0.0010736 Arg of perigee: 224.8211 deg Mean anomaly: 135.2577 deg Mean motion: 14.24747832 rev/day Decay rate: 8.7e-07 rev/day^2 Epoch rev: 61998 Checksum: 313
Satellite: NOAA-18 Catalog number: 28654 Epoch time: 14149.80744315 Element set: 87 Inclination: 099.1455 deg RA of node: 128.9368 deg Eccentricity: 0.0013748 Arg of perigee: 319.1971 deg Mean anomaly: 040.8639 deg Mean motion: 14.12020033 rev/day Decay rate: 1.76e-06 rev/day^2 Epoch rev: 46497 Checksum: 324
Satellite: NOAA-19 Catalog number: 33591 Epoch time: 14148.50868707 Element set: 246 Inclination: 098.9435 deg RA of node: 093.6061 deg Eccentricity: 0.0014310 Arg of perigee: 170.8297 deg Mean anomaly: 304.6965 deg Mean motion: 14.11717501 rev/day Decay rate: 3.3e-07 rev/day^2 Epoch rev: 27321 Checksum: 301
/EX SB KEPS @ AMSAT $ORB14149.M Orbital Elements 14149.MISC
HR AMSAT ORBITAL ELEMENTS FOR MANNED AND MISCELLANEOUS SATELLITES FROM WA5QGD FORT WORTH,TX May 29, 2014 BID: ORB14149.M TO ALL RADIO AMATEURS BT
Satellite: HUBBLE Catalog number: 20580 Epoch time: 14147.51630336 Element set: 22 Inclination: 028.4688 deg RA of node: 173.0101 deg Eccentricity: 0.0003338 Arg of perigee: 063.2416 deg Mean anomaly: 064.8356 deg Mean motion: 15.05400702 rev/day Decay rate: 1.154e-05 rev/day^2 Epoch rev: 12160 Checksum: 236
Satellite: ISS Catalog number: 25544 Epoch time: 14149.92532980 Element set: 384 Inclination: 051.6477 deg RA of node: 190.1227 deg Eccentricity: 0.0004095 Arg of perigee: 048.2953 deg Mean anomaly: 010.7504 deg Mean motion: 15.50519974 rev/day Decay rate: 2.996e-05 rev/day^2 Epoch rev: 88849 Checksum: 327
Satellite: CO-58 Catalog number: 28895 Epoch time: 14149.52453070 Element set: 779 Inclination: 097.8367 deg RA of node: 352.3610 deg Eccentricity: 0.0018684 Arg of perigee: 072.5441 deg Mean anomaly: 287.7802 deg Mean motion: 14.61873857 rev/day Decay rate: 3.67e-06 rev/day^2 Epoch rev: 45752 Checksum: 356
Satellite: FALCON Catalog number: 30776 Epoch time: 14148.69479766 Element set: 876 Inclination: 035.4285 deg RA of node: 234.4168 deg Eccentricity: 0.0001507 Arg of perigee: 149.1833 deg Mean anomaly: 340.7083 deg Mean motion: 15.16130960 rev/day Decay rate: 4.389e-05 rev/day^2 Epoch rev: 39777 Checksum: 335
Satellite: MAST Catalog number: 31126 Epoch time: 14148.95138855 Element set: 55 Inclination: 097.9125 deg RA of node: 130.8487 deg Eccentricity: 0.0093202 Arg of perigee: 055.1475 deg Mean anomaly: 005.0917 deg Mean motion: 14.55260507 rev/day Decay rate: 4.30e-06 rev/day^2 Epoch rev: 37759 Checksum: 296
Satellite: CAPE1 Catalog number: 31130 Epoch time: 14147.91648802 Element set: 61 Inclination: 097.9333 deg RA of node: 126.4968 deg Eccentricity: 0.0100478 Arg of perigee: 075.8373 deg Mean anomaly: 285.3964 deg Mean motion: 14.54413301 rev/day Decay rate: 6.54e-06 rev/day^2 Epoch rev: 37686 Checksum: 311
Satellite: COMPASS Catalog number: 32787 Epoch time: 14149.13411691 Element set: 941 Inclination: 097.7029 deg RA of node: 203.2105 deg Eccentricity: 0.0012834 Arg of perigee: 239.0032 deg Mean anomaly: 120.9924 deg Mean motion: 14.87834812 rev/day Decay rate: 1.779e-05 rev/day^2 Epoch rev: 32935 Checksum: 297
Satellite: AAUSAT2 Catalog number: 32788 Epoch time: 14149.14731645 Element set: 928 Inclination: 097.7039 deg RA of node: 204.1877 deg Eccentricity: 0.0012345 Arg of perigee: 236.6990 deg Mean anomaly: 123.3045 deg Mean motion: 14.88538236 rev/day Decay rate: 1.834e-05 rev/day^2 Epoch rev: 32941 Checksum: 322
Satellite: DO-64 Catalog number: 32789 Epoch time: 14149.18699466 Element set: 968 Inclination: 097.7223 deg RA of node: 210.5445 deg Eccentricity: 0.0011489 Arg of perigee: 220.6280 deg Mean anomaly: 205.2795 deg Mean motion: 14.93227715 rev/day Decay rate: 4.719e-05 rev/day^2 Epoch rev: 32966 Checksum: 351
Satellite: CO-66 Catalog number: 32791 Epoch time: 14149.61204015 Element set: 925 Inclination: 097.7025 deg RA of node: 202.4755 deg Eccentricity: 0.0012981 Arg of perigee: 243.3225 deg Mean anomaly: 116.7177 deg Mean motion: 14.86519914 rev/day Decay rate: 2.083e-05 rev/day^2 Epoch rev: 87982 Checksum: 319
Satellite: RS-30 Catalog number: 32953 Epoch time: 14149.71872039 Element set: 963 Inclination: 082.5042 deg RA of node: 212.6925 deg Eccentricity: 0.0018844 Arg of perigee: 192.4483 deg Mean anomaly: 167.6134 deg Mean motion: 12.43047518 rev/day Decay rate: 1.0e-07 rev/day^2 Epoch rev: 27296 Checksum: 304
Satellite: METEOR-M Catalog number: 35865 Epoch time: 14149.71885301 Element set: 577 Inclination: 098.5498 deg RA of node: 197.6890 deg Eccentricity: 0.0002938 Arg of perigee: 133.3616 deg Mean anomaly: 226.7807 deg Mean motion: 14.21922660 rev/day Decay rate: -1.4e-07 rev/day^2 Epoch rev: 24371 Checksum: 325
Satellite: RS-38 Catalog number: 35869 Epoch time: 14149.78500623 Element set: 498 Inclination: 098.5444 deg RA of node: 197.5599 deg Eccentricity: 0.0005601 Arg of perigee: 140.6774 deg Mean anomaly: 355.4141 deg Mean motion: 14.22210352 rev/day Decay rate: 8.0e-08 rev/day^2 Epoch rev: 24375 Checksum: 319
Satellite: JUGNU Catalog number: 37839 Epoch time: 14149.73555765 Element set: 626 Inclination: 019.9627 deg RA of node: 006.7670 deg Eccentricity: 0.0018897 Arg of perigee: 141.1524 deg Mean anomaly: 299.1620 deg Mean motion: 14.12309257 rev/day Decay rate: 3.87e-06 rev/day^2 Epoch rev: 13594 Checksum: 329
Satellite: SRMSAT Catalog number: 37841 Epoch time: 14148.09081708 Element set: 630 Inclination: 019.9730 deg RA of node: 035.6520 deg Eccentricity: 0.0011921 Arg of perigee: 063.8772 deg Mean anomaly: 076.7228 deg Mean motion: 14.10350959 rev/day Decay rate: 3.48e-06 rev/day^2 Epoch rev: 13551 Checksum: 288
Satellite: RAX-2 Catalog number: 37853 Epoch time: 14149.67977310 Element set: 817 Inclination: 101.7142 deg RA of node: 170.4988 deg Eccentricity: 0.0217594 Arg of perigee: 110.3327 deg Mean anomaly: 008.2535 deg Mean motion: 14.89196675 rev/day Decay rate: 5.030e-05 rev/day^2 Epoch rev: 13990 Checksum: 319
Satellite: AUBIESAT Catalog number: 37854 Epoch time: 14148.67596572 Element set: 798 Inclination: 101.7183 deg RA of node: 170.8090 deg Eccentricity: 0.0215509 Arg of perigee: 110.5308 deg Mean anomaly: 009.2261 deg Mean motion: 14.90491147 rev/day Decay rate: 5.699e-05 rev/day^2 Epoch rev: 13980 Checksum: 320
Satellite: HRBE Catalog number: 37855 Epoch time: 14149.66246361 Element set: 806 Inclination: 101.7184 deg RA of node: 171.6597 deg Eccentricity: 0.0217479 Arg of perigee: 108.8702 deg Mean anomaly: 006.3822 deg Mean motion: 14.89825935 rev/day Decay rate: 4.710e-05 rev/day^2 Epoch rev: 13992 Checksum: 328
Satellite: RS-39 Catalog number: 38051 Epoch time: 14149.80956758 Element set: 582 Inclination: 051.6273 deg RA of node: 315.1803 deg Eccentricity: 0.0003582 Arg of perigee: 143.2246 deg Mean anomaly: 356.1032 deg Mean motion: 15.58699157 rev/day Decay rate: 4.2609e-04 rev/day^2 Epoch rev: 13124 Checksum: 312
Satellite: E-STAR Catalog number: 38079 Epoch time: 14148.15464418 Element set: 864 Inclination: 069.4553 deg RA of node: 044.3794 deg Eccentricity: 0.0381915 Arg of perigee: 023.9584 deg Mean anomaly: 125.6722 deg Mean motion: 15.05359014 rev/day Decay rate: 1.07082e-03 rev/day^2 Epoch rev: 12044 Checksum: 311
Satellite: GOLIAT Catalog number: 38085 Epoch time: 14149.83812927 Element set: 80 Inclination: 069.4587 deg RA of node: 046.6121 deg Eccentricity: 0.0403575 Arg of perigee: 024.9071 deg Mean anomaly: 337.0972 deg Mean motion: 14.99926513 rev/day Decay rate: 9.0101e-04 rev/day^2 Epoch rev: 12052 Checksum: 305
